Location: Unspecified
(51.5147°N, 7.4673°E)
Time: 18:36:00
(UTC+01:00)

Vanguard 1 Rocket - Pass Details

Date: 20 February 2026
Orbit: 653 x 4214 km, 34.3° (Epoch: 12 March)

Event Time Altitude Azimuth Distance (km) Brightness Sun altitude
Rises 20:08:14 0° 271° (W) 6,591 13.3 -21.4°
Reaches altitude 10° 20:14:16 10° 256° (WSW) 6,154 12.5 -22.4°
Maximum altitude 20:26:13 19° 220° (SW) 6,223 11.9 -24.2°
Drops below altitude 10° 20:40:34 10° 185° (S) 7,403 11.9 -26.3°
Sets 20:49:27 0° 171° (S) 8,366 12.1 -27.6°
